Regional Weather Roundup
Issued by NWS Upton, NY

Current Version | Previous Version | Text Only | Print | Product List | Glossary On
Versions: 1 2 3 4 5 6 7 8 9 10 11 12 13 14 15 16 17 18 19 20 21 22 23 24 25 26 27 28 29 30 31 32 33 34 35 36 37 38 39 40 41 42 43 44 45 46 47 48 49 50
432 ASUS41 KOKX 120904 RWROKX REGIONAL WEATHER ROUNDUP NATIONAL WEATHER SERVICE NEW YORK NY 400 AM EST FRI FEB 12 2016 NOTE: "FAIR" INDICATES FEW OR NO CLOUDS BELOW 12,000 FEET WITH NO SIGNIFICANT WEATHER AND/OR OBSTRUCTIONS TO VISIBILITY. NYZ071-072-176-178-NJZ106-104-121000- NEW YORK CITY METRO AREA CITY SKY/WX TMP DP RH WIND PRES REMARKS CENTRAL PARK CLEAR 17 -2 43 W8G16 30.25R WCI 7 LAGUARDIA APRT CLEAR 18 0 45 NW14 30.24S WCI 4 KENNEDY INTL CLEAR 18 -3 39 NW16 30.26R WCI 3 NEWARK/LIBERTY CLEAR 16 -2 45 W8 30.26R WCI 5 BRNX BOT. GARD N/A 18 0 45 W14 30.23F WCI 4 TETERBORO CLEAR 16 -2 45 W6 30.24S WCI 7 $$ NYZ177-179-078>081-121000- LONG ISLAND NEW YORK CITY SKY/WX TMP DP RH WIND PRES REMARKS FARMINGDALE CLEAR 17 -1 45 NW8 30.23S WCI 7 ISLIP CLEAR 15 0 51 W8 30.21S WCI 4 SHIRLEY CLEAR 15 1 53 W7 30.22R WCI 5 RIVERHEAD N/A 18 -6 35 N3 30.18R WESTHAMPTON CLEAR 9 -2 61 W5 30.23R WCI 1 EAST HAMPTON FAIR 14 3 61 NW7 30.19S WCI 4 MONTAUK POINT N/A 16 5 62 NW13G23 30.20S WCI 2 $$ NYZ052-065-067-121000- HUDSON VALLEY CITY SKY/WX TMP DP RH WIND PRES REMARKS WHITE PLAINS PTCLDY 14 0 53 NW18G25 30.17S WCI -3 NEWBURGH CLEAR 10 3 72 W12 30.18F WCI -4 MONTGOMERY CLEAR 12 0 58 W9 30.18F WCI 0 POUGHKEEPSIE CLEAR 11 2 67 CALM 30.20S ALBANY PTCLDY 6 -4 63 W6 30.18F WCI -4 $$ NJZ001-105-106-008-010-013-015-019>022-104-121000- NEW JERSEY CITY SKY/WX TMP DP RH WIND PRES REMARKS NEWARK/LIBERTY CLEAR 16 -2 45 W8 30.26R WCI 5 TETERBORO CLEAR 16 -2 45 W6 30.24S WCI 7 CALDWELL CLEAR 15 -3 44 VRB5 30.24S WCI 8 MORRISTOWN CLEAR 16 -4 41 W3 30.24R SOMERVILLE CLEAR 14 1 56 CALM 30.24R SUSSEX CLEAR 12 -2 53 CALM 30.20R ANDOVER N/A 12 -2 53 CALM 30.21S TRENTON CLEAR 16 0 49 W5 30.25F WCI 9 MILLVILLE CLEAR 15 5 64 W3 30.30S ATLANTIC CITY PTCLDY 17 2 51 W6 30.29S WCI 9 WRIGHTSTOWN PTCLDY 16 1 51 NW8 30.24F WCI 5 TOMS RIVER CLEAR 14 1 57 W5 30.28S WCI 6 BELMAR CLEAR 18 -4 38 NW10G17 30.25S WCI 6 $$ PAZ047>061-062-071-121000- EASTERN PENNSYLVANIA CITY SKY/WX TMP DP RH WIND PRES REMARKS PHILADELPHIA CLEAR 18 0 45 W9 30.30S WCI 7 ALLENTOWN CLEAR 11 -1 58 SW8 30.24S WCI -1 SCRANTON CLEAR 9 -3 58 SW3 30.17F $$ CTZ002-004>006-009-010-012-RIZ004-006-007-MAZ004-011-015-121000- SOUTHERN NEW ENGLAND IN CT CITY SKY/WX TMP DP RH WIND PRES REMARKS BRADLEY INTL CLEAR 7 -5 57 W6 30.18R WCI -3 HARTFORD CLEAR 11 -2 56 NW5 30.21S WCI 3 DANBURY CLEAR 9 0 67 CALM 30.18S WTRBRY/OXFORD CLEAR 3 -9 55 CALM 30.14S BRIDGEPORT CLEAR 13 1 59 N5 30.22R WCI 5 MERIDEN CLEAR 4 -2 76 CALM 30.20S NEW HAVEN CLEAR 13 1 59 NW8 30.21R WCI 2 CHESTER FAIR 9 1 72 W3 30.17S GROTON CLEAR 11 -1 58 NW12 30.20S WCI -3 WILLIMANTIC CLEAR 9 -5 53 CALM 30.17S IN RI CITY SKY/WX TMP DP RH WIND PRES REMARKS PROVIDENCE CLEAR 9 -7 48 W10 30.17R WCI -5 BLOCK ISLAND CLEAR 16 3 57 NW20G29 30.15S WCI -1 WESTERLY CLEAR 11 -2 56 NW5 30.20R WCI 3 IN MA CITY SKY/WX TMP DP RH WIND PRES REMARKS BOSTON CLEAR 8 -7 50 W13G29 30.14R WCI -8 WORCESTER CLEAR 1 -10 60 W9 30.05R WCI -14 WESTFIELD CLEAR 7 -6 55 W10G17 30.16R WCI -8 PROVINCETOWN MOCLDY 13 5 70 NW23G36 30.11R WCI -6 NANTUCKET PTCLDY 15 0 51 NW20G32 30.12R WCI -2 $$ ANZ330-335-338-340-345-350-353-355-121000- COASTAL MARINE OBSERVATIONS STATION/POSITION TIME SKY/WX TEMP WIND PRES VSBY WAVE AIR SEA DIR/SP/G HT/PER (UTC) (F) (DEG/KT/KT) (MB) (MI) (FT/S) NY HARB ENTRANCE 0750 21 42 300/ 21/ 27 1023.7 4/ 4 4S FIRE IS NOT AVBL 20S FIRE ISLAND 0750 22 43 310/ 23/ 29 1022.9 6/ 6 GREAT SOUTH BAY NOT AVBL 23SW MTP 0850 20 45 310/ 19/ 25 1022.4 6/ 7 HUDSON CANYON 0750 26 48 1022.8 10/ 8 KINGS POINT 0800 18 35 350/ 17/ 22 1023.4 EXECUTION ROCKS NOT AVBL CENTRAL LI SOUND 0800 17 320/ 12/ 17 N/A 4/ 6 EASTERN LI SOUND 0800 19 41 300/ 16/ 23 N/A ROBBINS REEF 0800 18 300/ 17/ 21 1023.4 $$ >>>>>>>>>>>>>>>>>>>>>>>>>>>> KEY <<<<<<<<<<<<<<<<<<<<<<<<<<< > < > SKY/WX - SKY CONDITION/PRESENT WEATHER < > TMP - TEMPERATURE IN FAHRENHEIT < > DP - DEWPOINT IN FAHRENHEIT < > RH - RELATIVE HUMIDITY IN PERCENT < > WIND - DIRECTION AND SPEED IN MPH < > PRES - MEAN SEA LEVEL PRESSURE IN INCHES OF HG < > WCI - WIND CHILL INDEX < > VSB - VISIBILITY IN MILES < > HX - HEAT INDEX < > TC - TEMPERATURE IN CELSIUS < > VRB - VARIABLE WIND DIRECTION < > < >>>>>>>>>>>>>>>>>>>>>>>>>>>> KEY <<<<<<<<<<<<<<<<<<<<<<<<<<<

USA.gov is the U.S. government's official web portal to all federal, state and local government web resources and services.